Location: Azul
(36.7830°S, 59.8500°W)
Time: 15:16:45
(UTC-03:00)

ISS - Pass Details

Date: 25 September 2020
Orbit: 419 x 421 km, 51.6° (Epoch: 30 September)

Event Time Altitude Azimuth Distance (km) Brightness Sun altitude
Exits shadow 04:13:53 13° 85° (E) 1,332 -0.6 -29.7°
Drops below altitude 10° 04:14:37 10° 95° (E) 1,523 -0.1 -29.6°
Sets 04:17:12 0° 115° (ESE) 2,398 1.3 -29.1°
